EW4115 Athens GR current weather conditions

sailwx.info

Wind from 324

Air temperature 11.1° C
Dewpoint 9.5° C

Last reported at 2019-Dec-15 19:45 UTC.
Time now 2019-Dec-15 20:22 UTC

Location: N 38°02' E 023°47'.
View on Google Maps.

See reports from other nearby stations

  
Tides and Currents Weather Stations Pressure Air Temp Water Temp Dewpoint Dewpoint Depression Visibility Wind Speed Wind Dir Waves Ship Positions
date/time (UTC)wind fromknots sea level pressurealtimeterstation pressurevisibilityair tempwater tempwave heightnotes
2019-Dec-15 19:45 324 11.1
2019-Dec-15 19:31 324 11.1
2019-Dec-15 19:16 324 11.7
2019-Dec-15 19:01 324 11.7
2019-Dec-15 18:46 324 11.7
2019-Dec-15 18:30 324 12.2
2019-Dec-15 18:16 324 12.2
2019-Dec-15 18:00 324 12.8
2019-Dec-15 17:45 324 12.8
2019-Dec-15 17:31 324 13.3
2019-Dec-15 17:15 324 13.9
2019-Dec-15 17:01 324 13.9
2019-Dec-15 16:45 324 13.9
2019-Dec-15 16:30 324 13.9
2019-Dec-15 16:15 325 13.9
2019-Dec-15 16:00 325 14.4
2019-Dec-15 15:45 345 15.0
2019-Dec-15 15:30 346 15.6
2019-Dec-15 15:15 347 15.6
2019-Dec-15 15:00 347 16.1
2019-Dec-15 14:47 346 16.1
2019-Dec-15 14:32 355 1 gusting 7 16.1
2019-Dec-15 14:16 073 0 gusting 5 16.7
2019-Dec-15 14:03 336 16.7
2019-Dec-15 13:46 334 16.7
2019-Dec-15 13:33 331 16.7
2019-Dec-15 13:16 331 16.7
2019-Dec-15 13:03 331 0 gusting 3 16.7
2019-Dec-15 12:47 331 0 gusting 3 16.7
2019-Dec-15 12:33 328 0 gusting 6 17.2
2019-Dec-15 12:16 005 2 gusting 6 17.2
2019-Dec-15 12:04 360 17.2
2019-Dec-15 11:47 005 2 gusting 9 17.2
2019-Dec-15 11:31 324 0 gusting 5 17.2
2019-Dec-15 11:16 351 2 gusting 5 17.2
2019-Dec-15 11:01 326 0 gusting 7 17.2
2019-Dec-15 10:47 025 2 gusting 8 17.2
2019-Dec-15 10:31 346 1 gusting 5 16.7
2019-Dec-15 10:16 329 1 gusting 7 16.1
2019-Dec-15 10:01 005 1 gusting 8 15.6
2019-Dec-15 09:45 349 15.6
2019-Dec-15 09:31 349 15.0
2019-Dec-15 09:15 349 15.0
2019-Dec-15 09:00 349 15.0
2019-Dec-15 08:45 348 15.0
2019-Dec-15 08:30 349 14.4
2019-Dec-15 08:15 349 13.9
2019-Dec-15 08:00 349 12.8
2019-Dec-15 07:47 349 12.2
2019-Dec-15 07:33 349 11.7
2019-Dec-15 07:17 349 11.7
2019-Dec-15 07:02 349 11.1
2019-Dec-15 06:46 349 10.6
2019-Dec-15 06:31 349 10.0
2019-Dec-15 06:15 349 10.0
2019-Dec-15 06:01 349 10.0
2019-Dec-15 05:47 349 10.0
2019-Dec-15 05:31 349 9.4
2019-Dec-15 05:16 349 10.0
2019-Dec-15 05:00 349 10.0
2019-Dec-15 04:46 349 10.0
2019-Dec-15 04:31 349 10.0
2019-Dec-15 04:15 349 10.0
2019-Dec-15 04:00 349 10.0
2019-Dec-15 03:45 349 10.6
2019-Dec-15 03:30 349 10.6
2019-Dec-15 03:15 349 10.0
2019-Dec-15 03:00 349 10.0
2019-Dec-15 02:45 349 10.6
2019-Dec-15 02:30 349 10.0
2019-Dec-15 02:18 350 10.6
2019-Dec-15 02:01 350 10.6
2019-Dec-15 01:47 350 0 gusting 3 10.6
2019-Dec-15 01:32 290 10.6
2019-Dec-15 01:17 265 10.0
2019-Dec-15 01:01 265 10.0
2019-Dec-15 00:47 265 10.0
2019-Dec-15 00:32 265 10.0
2019-Dec-15 00:17 265 10.0
2019-Dec-15 00:01 265 9.4
2019-Dec-14 23:45 265 9.4
2019-Dec-14 23:30 265 9.4
2019-Dec-14 23:15 265 9.4
2019-Dec-14 23:01 265 9.4
2019-Dec-14 22:46 265 9.4
2019-Dec-14 22:30 265 9.4
2019-Dec-14 22:16 265 9.4
2019-Dec-14 22:00 265 9.4
2019-Dec-14 21:45 265 9.4
2019-Dec-14 21:30 265 10.0
2019-Dec-14 21:00 265 10.0
2019-Dec-14 20:45 265 10.0
2019-Dec-14 20:31 265 10.0
2019-Dec-14 20:18 265 10.6
2019-Dec-14 20:03 265 10.6
2019-Dec-14 19:48 265 10.6
2019-Dec-14 19:31 265 10.6
2019-Dec-14 19:16 265 10.6
2019-Dec-14 19:01 265 10.6
2019-Dec-14 18:46 265 10.6
2019-Dec-14 18:31 265 10.6
2019-Dec-14 18:17 265 10.6
2019-Dec-14 18:02 265 10.6
2019-Dec-14 17:47 265 10.6
2019-Dec-14 17:31 265 10.6
2019-Dec-14 17:16 265 10.6
2019-Dec-14 17:01 265 10.6
2019-Dec-14 16:46 265 10.6
2019-Dec-14 16:31 265 11.1
2019-Dec-14 16:16 265 11.1
2019-Dec-14 16:00 265 11.1
2019-Dec-14 15:31 265 11.1
2019-Dec-14 15:15 265 11.1
2019-Dec-14 14:46 265 11.7
2019-Dec-14 14:17 265 11.7
2019-Dec-14 14:01 265 11.7
2019-Dec-14 13:47 265 11.7
2019-Dec-14 13:30 265 11.7
2019-Dec-14 13:15 262 0 gusting 7 11.7
2019-Dec-14 13:00 261 1 gusting 2 11.7
2019-Dec-14 12:45 262 2 gusting 8 12.2
2019-Dec-14 12:31 277 0 gusting 2 12.2
2019-Dec-14 12:16 277 12.8
2019-Dec-14 12:01 277 12.8
2019-Dec-14 11:45 277 12.8
2019-Dec-14 11:30 229 0 gusting 4 12.8
2019-Dec-14 11:16 303 0 gusting 4 12.8
2019-Dec-14 11:00 074 0 gusting 3 12.2
2019-Dec-14 10:45 094 12.2
2019-Dec-14 10:30 162 0 gusting 7 12.8
2019-Dec-14 10:15 148 0 gusting 7 13.3
2019-Dec-14 10:00 146 0 gusting 7 13.3
2019-Dec-14 09:45 126 1 gusting 13 13.3
2019-Dec-14 09:30 123 0 gusting 6 13.3
2019-Dec-14 09:00 290 13.3
2019-Dec-14 08:46 012 0 gusting 4 13.3
2019-Dec-14 08:32 328 13.3
2019-Dec-14 08:17 271 13.3
2019-Dec-14 08:02 318 0 gusting 5 13.3
2019-Dec-14 07:46 076 0 gusting 6 13.3
2019-Dec-14 07:32 191 2 gusting 6 13.9
2019-Dec-14 07:17 200 1 gusting 5 13.9
2019-Dec-14 07:01 309 1 gusting 8 13.3
2019-Dec-14 06:47 026 2 gusting 12 13.3
2019-Dec-14 06:32 150 1 gusting 6 13.3
2019-Dec-14 06:16 205 1 gusting 6 12.8
2019-Dec-14 06:01 158 0 gusting 6 13.3
2019-Dec-14 05:46 252 1 gusting 6 13.3
2019-Dec-14 05:30 096 0 gusting 7 13.3
2019-Dec-14 05:00 243 1 gusting 6 13.3
2019-Dec-14 04:46 105 0 gusting 6 13.3
2019-Dec-14 04:30 284 12.8
2019-Dec-14 04:15 103 12.8
2019-Dec-14 04:01 272 12.2
2019-Dec-14 03:45 119 11.7
2019-Dec-14 03:30 148 11.1
2019-Dec-14 03:15 148 10.6
2019-Dec-14 03:00 261 9.4
2019-Dec-14 02:45 261 9.4
2019-Dec-14 02:31 261 9.4
2019-Dec-14 02:17 261 9.4
2019-Dec-14 02:03 261 8.9
2019-Dec-14 01:48 261 8.9
2019-Dec-14 01:33 261 8.9
2019-Dec-14 01:17 261 8.9
2019-Dec-14 01:02 261 9.4
2019-Dec-14 00:46 261 9.4
2019-Dec-14 00:32 261 9.4
2019-Dec-14 00:16 261 9.4
2019-Dec-14 00:01 261 9.4
2019-Dec-13 23:46 261 9.4
2019-Dec-13 23:31 261 9.4
2019-Dec-13 23:16 261 9.4
2019-Dec-13 23:00 261 9.4
2019-Dec-13 22:47 261 9.4
2019-Dec-13 22:32 261 9.4
2019-Dec-13 22:16 261 9.4
2019-Dec-13 22:00 261 9.4
2019-Dec-13 21:45 261 9.4
2019-Dec-13 21:30 261 8.9
2019-Dec-13 21:15 261 9.4
2019-Dec-13 21:00 261 9.4
2019-Dec-13 20:45 261 9.4
2019-Dec-13 20:30 261 9.4
2019-Dec-13 20:15 261 9.4
2019-Dec-13 20:00 261 10.0